Zurück zum Katalog

ONEWEB-0209

AktivKommunikationPO
NORAD 48215·PAYLOAD·🇬🇧 United Kingdom

Gestartet Apr 25, 2021 von Vostochny Cosmodrome

Loading…

Nächste Überflüge (nächste 24 Stunden)

TLE

AktuellSource: CelesTrak SupGP

Epoche: Sep 15, 2026, 01:37 UTC

1 48215C 21031F   26258.06788611 -.00001968  00000+0 -53158-2 0  2584
2 48215  87.8893 271.7875 0001701  94.5097 297.5712 13.14502227    16

Verfolge ONEWEB-0209 in Echtzeit mit AllMySat

Download on the App Store